Notices

What's New in latest Release from April 7th, 2021:

- Updated Glossary, including Speed of Maximum Gust, and Total Hourly Precipitation

- Updated national and regional climate services offices contacts and prices information

- Addition of station inventory lists for 1981-2010, 1971-2000, and 1961-1990 Normals.

If you haven't already, please take our survey and provide feedback about our website: https://eccc.sondage-survey.ca/f/LanguageSelection.aspx?s=442ca660-fcf1-47c0-95a9-59707d6fd709

Hourly Data Report for January 27, 2021

OTTAWA INTL A
ONTARIO
Current Station Operator: NAVCAN

45°19'00.000" N
75°40'00.000" W
114.90 m
6106001
71628
YOW

Download Data

Hourly Data (January 2021)
Hourly Data Report for January 27, 2021
TIME
LST
Temp Definition
°C
Dew Point Definition
°C
Rel Hum Definition
%
Precip. Amount Definition
mm

Wind Dir Definition
10's deg

Wind Spd Definition
km/h
Visibility Definition
km
Stn Press Definition
kPa
Hmdx Definition


Wind Chill Definition


Weather Definition


00:00 -5.6 -7.0 90   3 24 8.1 99.88   -13 Snow
01:00 -5.3 -7.2 86   2 17 16.1 99.94   -11 Cloudy
02:00 -5.0 -7.1 85   36 15 11.3 100.01   -11 Snow
03:00 -5.2 -6.8 89   36 14 16.1 100.07   -11 Snow
04:00 -5.2 -6.5 91   35 15 6.4 100.13   -11 Snow
05:00 -5.5 -7.1 88   36 14 24.1 100.19   -11 LegendNANA
06:00 -7.8 -9.3 89   31 16 24.1 100.29   -14 LegendNANA
07:00 -6.8 -8.4 88   31 13 24.1 100.39   -12 Cloudy
08:00 -6.2 -8.3 85   30 17 24.1 100.47   -12 LegendNANA
09:00 -6.6 -8.6 86   29 18 24.1 100.56   -13 LegendNANA
10:00 -6.8 -9.2 83   30 18 24.1 100.60   -13 Mostly Cloudy
11:00 -6.7 -9.3 82   29 17 24.1 100.64   -13 LegendNANA
12:00 -5.5 -9.3 74   28 15 24.1 100.61   -11 LegendNANA
13:00 -4.5 -8.9 71   30 16 24.1 100.58   -10 Mainly Clear
14:00 -4.1 -9.0 69   30 14 24.1 100.60   -9 LegendNANA
15:00 -5.1 -8.7 76   26 24 24.1 100.66   -12 LegendNANA
16:00 -5.6 -9.0 77   27 20 24.1 100.70   -12 Mostly Cloudy
17:00 -6.0 -9.4 77   28 16 24.1 100.71   -12 LegendNANA
18:00 -6.1 -9.5 77   27 17 24.1 100.74   -12 LegendNANA
19:00 -6.1 -9.5 77   27 18 24.1 100.78   -13 Mostly Cloudy
20:00 -6.3 -9.5 78   28 20 16.1 100.77   -13 Snow
21:00 -6.5 -9.6 79   30 18 24.1 100.78   -13 Snow
22:00 -6.7 -9.4 81   29 15 24.1 100.77   -13 Snow
23:00 -6.8 -9.6 81   29 15 24.1 100.81   -13 Snow

Notes on Data Quality.

Legend

  • E = Estimated
  • M = Missing
  • NA = Not Available*
  • [empty] = Indicates an unobserved value
Date modified: